| time (UTC) | temp C | wind direction | speed KPH | gust KPH | rain 1hr cm | rain 24hr cm | rain mn cm | humidity % | barometer mb |
| 20260507085555 | 22 | 260 | 6.4 | 12.9 | 0.00 | 0.00 | 0.00 | 47 | 1019.1 |
| 20260507085056 | 22 | 221 | 8.0 | 12.9 | 0.00 | 0.00 | 0.00 | 48 | 1019.1 |
| 20260507084604 | 22 | 260 | 8.0 | 14.5 | 0.00 | 0.00 | 0.00 | 47 | 1019.2 |
| 20260507084052 | 22 | 212 | 9.7 | 14.5 | 0.00 | 0.00 | 0.00 | 47 | 1019.4 |
| 20260507083552 | 22 | 238 | 8.0 | 12.9 | 0.00 | 0.00 | 0.00 | 48 | 1019.5 |
| 20260507083052 | 22 | 227 | 6.4 | 12.9 | 0.00 | 0.00 | 0.00 | 47 | 1019.4 |
| 20260507082550 | 22 | 215 | 6.4 | 12.9 | 0.00 | 0.00 | 0.00 | 46 | 1019.4 |
| 20260507082050 | 22 | 208 | 6.4 | 12.9 | 0.00 | 0.00 | 0.00 | 47 | 1019.4 |
| 20260507081550 | 21 | 269 | 4.8 | 12.9 | 0.00 | 0.00 | 0.00 | 48 | 1019.3 |
| 20260507081049 | 21 | 233 | 8.0 | 14.5 | 0.00 | 0.00 | 0.00 | 47 | 1019.3 |
| 20260507080551 | 21 | 256 | 6.4 | 11.3 | 0.00 | 0.00 | 0.00 | 49 | 1019.4 |
| 20260507080053 | 21 | 200 | 8.0 | 14.5 | 0.00 | 0.00 | 0.00 | 50 | 1019.3 |
| 20260507075547 | 21 | 246 | 6.4 | 16.1 | 0.00 | 0.00 | 0.00 | 51 | 1019.4 |
| 20260507075046 | 21 | 273 | 11.3 | 16.1 | 0.00 | 0.00 | 0.00 | 52 | 1019.3 |
| 20260507074545 | 21 | 266 | 8.0 | 16.1 | 0.00 | 0.00 | 0.00 | 52 | 1019.3 |
| 20260507074044 | 21 | 247 | 9.7 | 16.1 | 0.00 | 0.00 | 0.00 | 53 | 1019.3 |
| 20260507073543 | 21 | 250 | 9.7 | 14.5 | 0.00 | 0.00 | 0.00 | 54 | 1019.1 |
| 20260507073044 | 21 | 222 | 6.4 | 12.9 | 0.00 | 0.00 | 0.00 | 54 | 1019.1 |
| 20260507072543 | 21 | 231 | 3.2 | 12.9 | 0.00 | 0.00 | 0.00 | 53 | 1019.1 |
| 20260507072041 | 21 | 230 | 4.8 | 12.9 | 0.00 | 0.00 | 0.00 | 53 | 1019.2 |
| 20260507071540 | 20 | 247 | 8.0 | 12.9 | 0.00 | 0.00 | 0.00 | 53 | 1019.2 |
| 20260507071039 | 21 | 198 | 4.8 | 12.9 | 0.00 | 0.00 | 0.00 | 53 | 1019.2 |
| 20260507070539 | 20 | 182 | 4.8 | 12.9 | 0.00 | 0.00 | 0.00 | 54 | 1019.4 |
| 20260507070058 | 20 | 231 | 6.4 | 11.3 | 0.00 | 0.00 | 0.00 | 53 | 1019.4 |
| 20260507065537 | 20 | 238 | 6.4 | 14.5 | 0.00 | 0.00 | 0.00 | 53 | 1019.4 |
| 20260507065036 | 20 | 219 | 8.0 | 14.5 | 0.00 | 0.00 | 0.00 | 52 | 1019.4 |
| 20260507064536 | 20 | 197 | 8.0 | 16.1 | 0.00 | 0.00 | 0.00 | 53 | 1019.4 |
| 20260507064033 | 20 | 232 | 8.0 | 17.7 | 0.00 | 0.00 | 0.00 | 53 | 1019.4 |
| 20260507063531 | 20 | 261 | 8.0 | 12.9 | 0.00 | 0.00 | 0.00 | 53 | 1019.3 |
| 20260507063034 | 20 | 205 | 8.0 | 12.9 | 0.00 | 0.00 | 0.00 | 54 | 1019.2 |
| 20260507062529 | 20 | 248 | 6.4 | 12.9 | 0.00 | 0.00 | 0.00 | 53 | 1019.2 |
| 20260507062028 | 20 | 209 | 8.0 | 12.9 | 0.00 | 0.00 | 0.00 | 53 | 1019.2 |
| 20260507061528 | 20 | 213 | 4.8 | 9.7 | 0.00 | 0.00 | 0.00 | 52 | 1019.1 |
| 20260507061026 | 20 | 238 | 4.8 | 8.0 | 0.00 | 0.00 | 0.00 | 53 | 1019.1 |
| 20260507060525 | 20 | 233 | 3.2 | 6.4 | 0.00 | 0.00 | 0.00 | 53 | 1019.0 |
| 20260507060024 | 20 | 269 | 3.2 | 6.4 | 0.00 | 0.00 | 0.00 | 53 | 1018.8 |
| 20260507055523 | 20 | 283 | 1.6 | 6.4 | 0.00 | 0.00 | 0.00 | 53 | 1018.8 |
| 20260507055021 | 19 | 28 | 1.6 | 8.0 | 0.00 | 0.00 | 0.00 | 54 | 1018.7 |
| 20260507054519 | 18 | 11 | 3.2 | 9.7 | 0.00 | 0.00 | 0.00 | 57 | 1018.7 |
| 20260507054022 | 18 | 355 | 4.8 | 9.7 | 0.00 | 0.00 | 0.00 | 58 | 1018.6 |
| 20260507053516 | 18 | 355 | 4.8 | 8.0 | 0.00 | 0.00 | 0.00 | 58 | 1018.5 |
| 20260507053016 | 18 | 355 | 1.6 | 8.0 | 0.00 | 0.00 | 0.00 | 59 | 1018.5 |
| 20260507052514 | 18 | 360 | 1.6 | 8.0 | 0.00 | 0.00 | 0.00 | 60 | 1018.5 |
| 20260507052012 | 17 | 13 | 3.2 | 6.4 | 0.00 | 0.00 | 0.00 | 60 | 1018.4 |
| 20260507051511 | 17 | 11 | 3.2 | 8.0 | 0.00 | 0.00 | 0.00 | 60 | 1018.4 |
| 20260507051010 | 17 | 58 | 1.6 | 9.7 | 0.00 | 0.00 | 0.00 | 61 | 1018.4 |
| 20260507050508 | 16 | 30 | 1.6 | 9.7 | 0.00 | 0.00 | 0.00 | 62 | 1018.4 |
| 20260507050024 | 16 | 73 | 4.8 | 9.7 | 0.00 | 0.00 | 0.00 | 62 | 1018.4 |
| 20260507045507 | 16 | 56 | 4.8 | 9.7 | 0.00 | 0.00 | 0.00 | 64 | 1018.4 |
| 20260507045005 | 15 | 17 | 4.8 | 8.0 | 0.00 | 0.00 | 0.00 | 65 | 1018.5 |
| 20260507044503 | 15 | 15 | 3.2 | 6.4 | 0.00 | 0.00 | 0.00 | 67 | 1018.5 |
| 20260507044002 | 14 | 40 | 3.2 | 6.4 | 0.00 | 0.00 | 0.00 | 68 | 1018.5 |
| 20260507043500 | 14 | 24 | 3.2 | 8.0 | 0.00 | 0.00 | 0.00 | 68 | 1018.4 |
| 20260507043100 | 14 | 23 | 3.2 | 6.4 | 0.00 | 0.00 | 0.00 | 68 | 1018.4 |
| 20260507042603 | 14 | 355 | 0.0 | 6.4 | 0.00 | 0.00 | 0.00 | 67 | 1018.4 |
| 20260507042057 | 14 | 57 | 1.6 | 9.7 | 0.00 | 0.00 | 0.00 | 68 | 1018.4 |
| 20260507041603 | 13 | 53 | 4.8 | 9.7 | 0.00 | 0.00 | 0.00 | 70 | 1018.5 |
| 20260507041101 | 13 | 49 | 4.8 | 9.7 | 0.00 | 0.00 | 0.00 | 71 | 1018.5 |
| 20260507040552 | 13 | 29 | 4.8 | 8.0 | 0.00 | 0.00 | 0.00 | 71 | 1018.5 |
| 20260507040052 | 13 | 37 | 4.8 | 8.0 | 0.00 | 0.00 | 0.00 | 70 | 1018.6 |
| 20260507035551 | 13 | 41 | 1.6 | 6.4 | 0.00 | 0.00 | 0.00 | 70 | 1018.5 |
| 20260507035048 | 13 | 38 | 0.0 | 8.0 | 0.00 | 0.00 | 0.00 | 69 | 1018.5 |
| 20260507034546 | 13 | 73 | 1.6 | 8.0 | 0.00 | 0.00 | 0.00 | 70 | 1018.5 |
| 20260507034045 | 13 | 49 | 4.8 | 8.0 | 0.00 | 0.00 | 0.00 | 71 | 1018.5 |
| 20260507033544 | 12 | 50 | 4.8 | 9.7 | 0.00 | 0.00 | 0.00 | 72 | 1018.4 |
| 20260507033044 | 12 | 59 | 4.8 | 9.7 | 0.00 | 0.00 | 0.00 | 73 | 1018.4 |
| 20260507032543 | 12 | 27 | 4.8 | 8.0 | 0.00 | 0.00 | 0.00 | 72 | 1018.4 |
| 20260507032043 | 13 | 36 | 3.2 | 6.4 | 0.00 | 0.00 | 0.00 | 70 | 1018.3 |
| 20260507031543 | 13 | 71 | 3.2 | 6.4 | 0.00 | 0.00 | 0.00 | 71 | 1018.3 |
| 20260507031041 | 13 | 62 | 3.2 | 6.4 | 0.00 | 0.00 | 0.00 | 72 | 1018.3 |
| 20260507030542 | 13 | 68 | 1.6 | 4.8 | 0.00 | 0.00 | 0.00 | 71 | 1018.3 |
| 20260507030041 | 13 | 63 | 1.6 | 4.8 | 0.00 | 0.00 | 0.00 | 71 | 1018.3 |
| 20260507025540 | 13 | 59 | 3.2 | 4.8 | 0.00 | 0.00 | 0.00 | 72 | 1018.2 |
| 20260507025041 | 12 | 44 | 1.6 | 8.0 | 0.00 | 0.00 | 0.00 | 72 | 1018.2 |
| 20260507024540 | 12 | 37 | 3.2 | 8.0 | 0.00 | 0.00 | 0.00 | 73 | 1018.3 |
| 20260507024040 | 12 | 40 | 4.8 | 8.0 | 0.00 | 0.00 | 0.00 | 72 | 1018.3 |
| 20260507023539 | 12 | 31 | 3.2 | 6.4 | 0.00 | 0.00 | 0.00 | 72 | 1018.3 |
| 20260507023039 | 12 | 57 | 3.2 | 6.4 | 0.00 | 0.00 | 0.00 | 71 | 1018.3 |
| 20260507022539 | 13 | 44 | 3.2 | 6.4 | 0.00 | 0.00 | 0.00 | 71 | 1018.2 |
| 20260507022039 | 13 | 53 | 3.2 | 6.4 | 0.00 | 0.00 | 0.00 | 70 | 1018.3 |
| 20260507021539 | 13 | 73 | 1.6 | 4.8 | 0.00 | 0.00 | 0.00 | 69 | 1018.3 |
| 20260507021038 | 13 | 77 | 1.6 | 4.8 | 0.00 | 0.00 | 0.00 | 69 | 1018.2 |
| 20260507020538 | 13 | 94 | 0.0 | 6.4 | 0.00 | 0.00 | 0.00 | 68 | 1018.2 |
| 20260507020045 | 13 | 94 | 1.6 | 9.7 | 0.00 | 0.00 | 0.00 | 68 | 1018.1 |
| 20260507015537 | 13 | 102 | 3.2 | 9.7 | 0.00 | 0.00 | 0.00 | 68 | 1018.1 |
| 20260507015037 | 13 | 83 | 6.4 | 9.7 | 0.00 | 0.00 | 0.00 | 69 | 1018.1 |
| 20260507014542 | 13 | 86 | 4.8 | 9.7 | 0.00 | 0.00 | 0.00 | 69 | 1018.1 |
| 20260507014037 | 12 | 73 | 6.4 | 11.3 | 0.00 | 0.00 | 0.00 | 70 | 1018.2 |
| 20260507013536 | 12 | 63 | 8.0 | 11.3 | 0.00 | 0.00 | 0.00 | 70 | 1018.0 |
| 20260507013043 | 12 | 40 | 6.4 | 9.7 | 0.00 | 0.00 | 0.00 | 71 | 1017.9 |
| 20260507012535 | 12 | 17 | 4.8 | 12.9 | 0.00 | 0.00 | 0.00 | 71 | 1017.9 |
| 20260507012034 | 12 | 34 | 4.8 | 14.5 | 0.00 | 0.00 | 0.00 | 71 | 1017.8 |
| 20260507011541 | 12 | 38 | 8.0 | 14.5 | 0.00 | 0.00 | 0.00 | 71 | 1017.5 |
| 20260507011033 | 12 | 46 | 8.0 | 12.9 | 0.00 | 0.00 | 0.00 | 71 | 1017.4 |
| 20260507010532 | 12 | 24 | 6.4 | 9.7 | 0.00 | 0.00 | 0.00 | 70 | 1017.3 |
| 20260507010041 | 12 | 32 | 8.0 | 12.9 | 0.00 | 0.00 | 0.00 | 70 | 1017.4 |
| 20260507005533 | 12 | 38 | 6.4 | 12.9 | 0.00 | 0.00 | 0.00 | 70 | 1017.3 |
| 20260507005031 | 12 | 29 | 4.8 | 9.7 | 0.00 | 0.00 | 0.00 | 70 | 1017.5 |
| 20260507004530 | 12 | 46 | 6.4 | 9.7 | 0.00 | 0.00 | 0.00 | 70 | 1017.4 |
| 20260507004030 | 12 | 44 | 6.4 | 9.7 | 0.00 | 0.00 | 0.00 | 71 | 1017.4 |
| 20260507003530 | 12 | 30 | 6.4 | 9.7 | 0.00 | 0.00 | 0.00 | 70 | 1017.3 |
| 20260507003029 | 13 | 28 | 6.4 | 9.7 | 0.00 | 0.00 | 0.00 | 69 | 1017.3 |
| 20260507002528 | 13 | 49 | 4.8 | 9.7 | 0.00 | 0.00 | 0.00 | 69 | 1017.3 |
| 20260507002027 | 13 | 42 | 4.8 | 11.3 | 0.00 | 0.00 | 0.00 | 69 | 1017.3 |
| 20260507001537 | 13 | 49 | 6.4 | 14.5 | 0.00 | 0.00 | 0.00 | 70 | 1017.4 |
| 20260507001026 | 13 | 46 | 9.7 | 14.5 | 0.00 | 0.00 | 0.00 | 70 | 1017.5 |
| 20260507000525 | 13 | 34 | 8.0 | 14.5 | 0.00 | 0.00 | 0.00 | 70 | 1017.5 |
| 20260507000031 | 13 | 34 | 6.4 | 9.7 | 0.00 | 0.00 | 0.00 | 69 | 1017.6 |
| 20260506235523 | 13 | 44 | 4.8 | 11.3 | 0.00 | 0.00 | 0.00 | 69 | 1017.6 |
| 20260506235023 | 13 | 40 | 8.0 | 9.7 | 0.00 | 0.00 | 0.00 | 69 | 1017.7 |
| 20260506234522 | 13 | 40 | 6.4 | 11.3 | 0.00 | 0.00 | 0.00 | 69 | 1017.8 |
| 20260506234022 | 13 | 36 | 8.0 | 11.3 | 0.00 | 0.00 | 0.00 | 69 | 1017.9 |
| 20260506233520 | 13 | 38 | 4.8 | 9.7 | 0.00 | 0.00 | 0.00 | 69 | 1018.0 |
| 20260506233019 | 13 | 32 | 6.4 | 9.7 | 0.00 | 0.00 | 0.00 | 68 | 1018.0 |
| 20260506232517 | 13 | 22 | 4.8 | 6.4 | 0.00 | 0.00 | 0.00 | 67 | 1018.1 |
| 20260506232017 | 13 | 39 | 3.2 | 9.7 | 0.00 | 0.00 | 0.00 | 66 | 1018.1 |
| 20260506231519 | 13 | 54 | 4.8 | 9.7 | 0.00 | 0.00 | 0.00 | 67 | 1018.0 |
| 20260506231016 | 13 | 41 | 6.4 | 9.7 | 0.00 | 0.00 | 0.00 | 67 | 1018.1 |
| 20260506230516 | 13 | 25 | 4.8 | 8.0 | 0.00 | 0.00 | 0.00 | 67 | 1018.2 |
| 20260506230016 | 13 | 35 | 4.8 | 8.0 | 0.00 | 0.00 | 0.00 | 68 | 1018.2 |
| 20260506225516 | 13 | 30 | 4.8 | 8.0 | 0.00 | 0.00 | 0.00 | 68 | 1018.2 |
| 20260506225013 | 13 | 30 | 4.8 | 8.0 | 0.00 | 0.00 | 0.00 | 67 | 1018.2 |
| 20260506224514 | 14 | 38 | 4.8 | 6.4 | 0.00 | 0.00 | 0.00 | 65 | 1018.3 |
| 20260506224009 | 15 | 74 | 3.2 | 6.4 | 0.00 | 0.00 | 0.00 | 63 | 1018.2 |
| 20260506223509 | 15 | 76 | 3.2 | 6.4 | 0.00 | 0.00 | 0.00 | 62 | 1018.3 |
| 20260506223009 | 16 | 76 | 1.6 | 6.4 | 0.00 | 0.00 | 0.00 | 61 | 1018.3 |
| 20260506222509 | 15 | 78 | 3.2 | 6.4 | 0.00 | 0.00 | 0.00 | 62 | 1018.3 |
| 20260506222009 | 15 | 70 | 3.2 | 9.7 | 0.00 | 0.00 | 0.00 | 62 | 1018.3 |
| 20260506221508 | 15 | 53 | 6.4 | 9.7 | 0.00 | 0.00 | 0.00 | 63 | 1018.4 |
| 20260506221008 | 15 | 38 | 4.8 | 8.0 | 0.00 | 0.00 | 0.00 | 64 | 1018.4 |
| 20260506220507 | 15 | 46 | 4.8 | 8.0 | 0.00 | 0.00 | 0.00 | 65 | 1018.4 |
| 20260506220007 | 15 | 32 | 4.8 | 8.0 | 0.00 | 0.00 | 0.00 | 65 | 1018.3 |
| 20260506215507 | 15 | 53 | 4.8 | 8.0 | 0.00 | 0.00 | 0.00 | 65 | 1018.3 |
| 20260506215006 | 15 | 38 | 4.8 | 11.3 | 0.00 | 0.00 | 0.00 | 65 | 1018.4 |
| 20260506214505 | 15 | 46 | 6.4 | 8.0 | 0.00 | 0.00 | 0.00 | 65 | 1018.3 |
| 20260506214005 | 15 | 43 | 4.8 | 8.0 | 0.00 | 0.00 | 0.00 | 65 | 1018.3 |
| 20260506213507 | 15 | 35 | 4.8 | 9.7 | 0.00 | 0.00 | 0.00 | 66 | 1018.3 |
| 20260506213003 | 15 | 30 | 4.8 | 8.0 | 0.00 | 0.00 | 0.00 | 65 | 1018.4 |
| 20260506212502 | 15 | 17 | 4.8 | 6.4 | 0.00 | 0.00 | 0.00 | 64 | 1018.5 |
| 20260506212101 | 16 | 28 | 1.6 | 4.8 | 0.00 | 0.00 | 0.00 | 63 | 1018.5 |
| 20260506211559 | 16 | 59 | 0.0 | 0.0 | 0.00 | 0.00 | 0.00 | 62 | 1018.5 |
| 20260506211104 | 16 | 56 | 0.0 | 3.2 | 0.00 | 0.00 | 0.00 | 62 | 1018.5 |
| 20260506210559 | 16 | 54 | 0.0 | 3.2 | 0.00 | 0.00 | 0.00 | 62 | 1018.5 |
| 20260506210057 | 16 | 48 | 0.0 | 3.2 | 0.00 | 0.00 | 0.00 | 62 | 1018.5 |
| 20260506205557 | 16 | 51 | 0.0 | 3.2 | 0.00 | 0.00 | 0.00 | 61 | 1018.6 |
| 20260506205057 | 17 | 53 | 0.0 | 3.2 | 0.00 | 0.00 | 0.00 | 59 | 1018.6 |
| 20260506204557 | 17 | 46 | 0.0 | 0.0 | 0.00 | 0.00 | 0.00 | 59 | 1018.6 |
| 20260506204056 | 16 | 34 | 0.0 | 0.0 | 0.00 | 0.00 | 0.00 | 59 | 1018.7 |
| 20260506203556 | 16 | 33 | 0.0 | 0.0 | 0.00 | 0.00 | 0.00 | 60 | 1018.7 |
| 20260506203056 | 16 | 34 | 0.0 | 0.0 | 0.00 | 0.00 | 0.00 | 60 | 1018.7 |
| 20260506202555 | 16 | 32 | 0.0 | 0.0 | 0.00 | 0.00 | 0.00 | 60 | 1018.7 |
| 20260506202056 | 17 | 30 | 0.0 | 0.0 | 0.00 | 0.00 | 0.00 | 59 | 1018.7 |
| 20260506201555 | 17 | 26 | 0.0 | 0.0 | 0.00 | 0.00 | 0.00 | 57 | 1018.7 |
| 20260506201054 | 18 | 26 | 0.0 | 1.6 | 0.00 | 0.00 | 0.00 | 55 | 1018.6 |
| 20260506200554 | 18 | 26 | 0.0 | 1.6 | 0.00 | 0.00 | 0.00 | 53 | 1018.5 |
| 20260506200054 | 18 | 24 | 0.0 | 4.8 | 0.00 | 0.00 | 0.00 | 53 | 1018.5 |
| 20260506195553 | 18 | 24 | 1.6 | 4.8 | 0.00 | 0.00 | 0.00 | 51 | 1018.5 |
| 20260506195053 | 18 | 28 | 1.6 | 4.8 | 0.00 | 0.00 | 0.00 | 53 | 1018.5 |
| 20260506194552 | 18 | 28 | 0.0 | 4.8 | 0.00 | 0.00 | 0.00 | 53 | 1018.4 |
| 20260506194050 | 18 | 20 | 1.6 | 6.4 | 0.00 | 0.00 | 0.00 | 52 | 1018.4 |
| 20260506193551 | 18 | 22 | 1.6 | 6.4 | 0.00 | 0.00 | 0.00 | 53 | 1018.3 |
| 20260506193055 | 18 | 24 | 1.6 | 4.8 | 0.00 | 0.00 | 0.00 | 52 | 1018.3 |
| 20260506192549 | 18 | 28 | 1.6 | 4.8 | 0.00 | 0.00 | 0.00 | 52 | 1018.2 |
| 20260506192049 | 19 | 20 | 0.0 | 3.2 | 0.00 | 0.00 | 0.00 | 50 | 1018.1 |
| 20260506191553 | 19 | 19 | 0.0 | 3.2 | 0.00 | 0.00 | 0.00 | 49 | 1018.1 |
| 20260506191053 | 20 | 12 | 0.0 | 3.2 | 0.00 | 0.00 | 0.00 | 47 | 1018.1 |
| 20260506190548 | 20 | 17 | 0.0 | 4.8 | 0.00 | 0.00 | 0.00 | 46 | 1017.9 |
| 20260506190050 | 20 | 18 | 1.6 | 4.8 | 0.00 | 0.00 | 0.00 | 46 | 1018.0 |
| 20260506185548 | 20 | 25 | 1.6 | 6.4 | 0.00 | 0.00 | 0.00 | 46 | 1017.9 |
| 20260506185048 | 20 | 360 | 1.6 | 6.4 | 0.00 | 0.00 | 0.00 | 45 | 1018.0 |
| 20260506184548 | 20 | 350 | 3.2 | 6.4 | 0.00 | 0.00 | 0.00 | 45 | 1017.9 |
| 20260506184048 | 20 | 350 | 1.6 | 4.8 | 0.00 | 0.00 | 0.00 | 45 | 1017.8 |
| 20260506183548 | 20 | 322 | 0.0 | 4.8 | 0.00 | 0.00 | 0.00 | 45 | 1017.8 |
| 20260506183051 | 20 | 337 | 0.0 | 4.8 | 0.00 | 0.00 | 0.00 | 45 | 1017.7 |
| 20260506182548 | 20 | 342 | 3.2 | 4.8 | 0.00 | 0.00 | 0.00 | 45 | 1017.6 |
| 20260506182048 | 20 | 335 | 1.6 | 6.4 | 0.00 | 0.00 | 0.00 | 46 | 1017.5 |
| 20260506181600 | 20 | 336 | 1.6 | 6.4 | 0.00 | 0.00 | 0.00 | 46 | 1017.5 |
| 20260506181046 | 20 | 334 | 1.6 | 6.4 | 0.00 | 0.00 | 0.00 | 46 | 1017.5 |
| 20260506180550 | 20 | 323 | 3.2 | 6.4 | 0.00 | 0.00 | 0.00 | 46 | 1017.5 |
| 20260506180048 | 20 | 336 | 3.2 | 6.4 | 0.00 | 0.00 | 0.00 | 46 | 1017.5 |
| 20260506175546 | 20 | 346 | 3.2 | 8.0 | 0.00 | 0.00 | 0.00 | 46 | 1017.5 |
| 20260506175046 | 20 | 346 | 3.2 | 8.0 | 0.00 | 0.00 | 0.00 | 46 | 1017.5 |
| 20260506174644 | 20 | 323 | 4.8 | 11.3 | 0.00 | 0.00 | 0.00 | 46 | 1017.5 |
| 20260506174044 | 20 | 317 | 3.2 | 8.0 | 0.00 | 0.00 | 0.00 | 46 | 1017.4 |
| 20260506173544 | 20 | 280 | 3.2 | 8.0 | 0.00 | 0.00 | 0.00 | 46 | 1017.3 |
| 20260506173111 | 20 | 280 | 4.8 | 12.9 | 0.00 | 0.00 | 0.00 | 46 | 1017.3 |
| 20260506172543 | 21 | 262 | 6.4 | 12.9 | 0.00 | 0.00 | 0.00 | 46 | 1017.3 |
| 20260506172043 | 21 | 288 | 3.2 | 9.7 | 0.00 | 0.00 | 0.00 | 46 | 1017.4 |
| 20260506171545 | 21 | 273 | 6.4 | 9.7 | 0.00 | 0.00 | 0.00 | 45 | 1017.4 |
| 20260506171043 | 21 | 298 | 4.8 | 14.5 | 0.00 | 0.00 | 0.00 | 45 | 1017.3 |
| 20260506170543 | 21 | 271 | 9.7 | 14.5 | 0.00 | 0.00 | 0.00 | 44 | 1017.3 |
| 20260506165543 | 21 | 282 | 6.4 | 12.9 | 0.00 | 0.00 | 0.00 | 44 | 1017.3 |
| 20260506165043 | 21 | 259 | 6.4 | 14.5 | 0.00 | 0.00 | 0.00 | 44 | 1017.2 |
| 20260506164542 | 21 | 274 | 8.0 | 14.5 | 0.00 | 0.00 | 0.00 | 43 | 1017.2 |
| 20260506164043 | 21 | 246 | 4.8 | 16.1 | 0.00 | 0.00 | 0.00 | 43 | 1017.3 |
| 20260506163543 | 21 | 273 | 11.3 | 16.1 | 0.00 | 0.00 | 0.00 | 42 | 1017.3 |
| 20260506163052 | 21 | 251 | 9.7 | 17.7 | 0.00 | 0.00 | 0.00 | 42 | 1017.3 |
| 20260506162543 | 21 | 257 | 11.3 | 17.7 | 0.00 | 0.00 | 0.00 | 42 | 1017.2 |
| 20260506162045 | 22 | 261 | 11.3 | 20.9 | 0.00 | 0.00 | 0.00 | 41 | 1017.2 |
| 20260506161542 | 22 | 285 | 14.5 | 20.9 | 0.00 | 0.00 | 0.00 | 41 | 1017.1 |
| 20260506161140 | 22 | 281 | 11.3 | 17.7 | 0.00 | 0.00 | 0.00 | 40 | 1017.1 |
| 20260506160540 | 22 | 305 | 12.9 | 19.3 | 0.00 | 0.00 | 0.00 | 40 | 1017.2 |
| 20260506160042 | 22 | 288 | 11.3 | 19.3 | 0.00 | 0.00 | 0.00 | 40 | 1017.2 |
| 20260506155539 | 22 | 259 | 8.0 | 17.7 | 0.00 | 0.00 | 0.00 | 40 | 1017.1 |
| 20260506155036 | 22 | 267 | 12.9 | 17.7 | 0.00 | 0.00 | 0.00 | 40 | 1017.1 |
| 20260506154538 | 22 | 253 | 11.3 | 19.3 | 0.00 | 0.00 | 0.00 | 40 | 1017.1 |
| 20260506154034 | 22 | 288 | 12.9 | 20.9 | 0.00 | 0.00 | 0.00 | 39 | 1017.3 |
| 20260506153531 | 22 | 279 | 11.3 | 20.9 | 0.00 | 0.00 | 0.00 | 39 | 1017.4 |
| 20260506153030 | 22 | 256 | 11.3 | 22.5 | 0.00 | 0.00 | 0.00 | 39 | 1017.3 |
| 20260506152529 | 22 | 281 | 16.1 | 22.5 | 0.00 | 0.00 | 0.00 | 39 | 1017.4 |
| 20260506152029 | 22 | 260 | 16.1 | 24.1 | 0.00 | 0.00 | 0.00 | 40 | 1017.4 |
| 20260506151528 | 22 | 271 | 17.7 | 25.7 | 0.00 | 0.00 | 0.00 | 39 | 1017.4 |
| 20260506151029 | 22 | 267 | 17.7 | 24.1 | 0.00 | 0.00 | 0.00 | 39 | 1017.3 |
| 20260506150527 | 22 | 293 | 12.9 | 24.1 | 0.00 | 0.00 | 0.00 | 41 | 1017.3 |
| 20260506150026 | 22 | 259 | 14.5 | 25.7 | 0.00 | 0.00 | 0.00 | 40 | 1017.3 |
| 20260506145530 | 22 | 303 | 19.3 | 25.7 | 0.00 | 0.00 | 0.00 | 40 | 1017.3 |
| 20260506145026 | 22 | 264 | 11.3 | 27.4 | 0.00 | 0.00 | 0.00 | 40 | 1017.3 |
| 20260506144524 | 22 | 252 | 16.1 | 27.4 | 0.00 | 0.00 | 0.00 | 41 | 1017.3 |
| 20260506144026 | 22 | 265 | 14.5 | 22.5 | 0.00 | 0.00 | 0.00 | 41 | 1017.3 |
| 20260506143523 | 22 | 279 | 17.7 | 22.5 | 0.00 | 0.00 | 0.00 | 41 | 1017.3 |
| 20260506143026 | 22 | 286 | 17.7 | 24.1 | 0.00 | 0.00 | 0.00 | 42 | 1017.3 |
| 20260506142521 | 23 | 222 | 14.5 | 24.1 | 0.00 | 0.00 | 0.00 | 41 | 1017.3 |
| 20260506142021 | 22 | 236 | 12.9 | 24.1 | 0.00 | 0.00 | 0.00 | 42 | 1017.3 |
| 20260506141521 | 22 | 249 | 16.1 | 25.7 | 0.00 | 0.00 | 0.00 | 42 | 1017.3 |
| 20260506141020 | 22 | 271 | 17.7 | 25.7 | 0.00 | 0.00 | 0.00 | 43 | 1017.3 |
| 20260506140520 | 23 | 240 | 14.5 | 24.1 | 0.00 | 0.00 | 0.00 | 42 | 1017.4 |
| 20260506140021 | 22 | 222 | 14.5 | 24.1 | 0.00 | 0.00 | 0.00 | 43 | 1017.3 |
| 20260506135518 | 22 | 240 | 16.1 | 24.1 | 0.00 | 0.00 | 0.00 | 43 | 1017.3 |
| 20260506135017 | 22 | 239 | 16.1 | 30.6 | 0.00 | 0.00 | 0.00 | 44 | 1017.3 |
| 20260506134517 | 22 | 247 | 16.1 | 30.6 | 0.00 | 0.00 | 0.00 | 44 | 1017.3 |
| 20260506134015 | 23 | 250 | 12.9 | 24.1 | 0.00 | 0.00 | 0.00 | 43 | 1017.3 |
| 20260506133518 | 23 | 245 | 16.1 | 25.7 | 0.00 | 0.00 | 0.00 | 44 | 1017.3 |
| 20260506133015 | 23 | 301 | 16.1 | 27.4 | 0.00 | 0.00 | 0.00 | 44 | 1017.2 |
| 20260506132513 | 23 | 263 | 17.7 | 27.4 | 0.00 | 0.00 | 0.00 | 44 | 1017.3 |
| 20260506132017 | 23 | 251 | 12.9 | 22.5 | 0.00 | 0.00 | 0.00 | 41 | 1017.2 |
| 20260506131514 | 23 | 253 | 16.1 | 22.5 | 0.00 | 0.00 | 0.00 | 39 | 1017.2 |
| 20260506131015 | 23 | 228 | 14.5 | 27.4 | 0.00 | 0.00 | 0.00 | 38 | 1017.2 |
| 20260506130513 | 23 | 259 | 19.3 | 27.4 | 0.00 | 0.00 | 0.00 | 39 | 1017.3 |
| 20260506130012 | 23 | 256 | 12.9 | 19.3 | 0.00 | 0.00 | 0.00 | 40 | 1017.3 |
| 20260506125509 | 23 | 267 | 11.3 | 19.3 | 0.00 | 0.00 | 0.00 | 41 | 1017.2 |
| 20260506125009 | 23 | 271 | 12.9 | 22.5 | 0.00 | 0.00 | 0.00 | 40 | 1017.4 |
| 20260506124508 | 23 | 213 | 14.5 | 22.5 | 0.00 | 0.00 | 0.00 | 39 | 1017.5 |
| 20260506124007 | 23 | 268 | 17.7 | 24.1 | 0.00 | 0.00 | 0.00 | 41 | 1017.5 |
| 20260506123508 | 23 | 239 | 14.5 | 25.7 | 0.00 | 0.00 | 0.00 | 42 | 1017.5 |
| 20260506123007 | 23 | 254 | 17.7 | 25.7 | 0.00 | 0.00 | 0.00 | 42 | 1017.6 |
| 20260506122506 | 23 | 270 | 14.5 | 24.1 | 0.00 | 0.00 | 0.00 | 42 | 1017.5 |
| 20260506122006 | 23 | 242 | 14.5 | 24.1 | 0.00 | 0.00 | 0.00 | 41 | 1017.4 |
| 20260506121506 | 23 | 256 | 11.3 | 24.1 | 0.00 | 0.00 | 0.00 | 41 | 1017.5 |
| 20260506121004 | 23 | 233 | 17.7 | 24.1 | 0.00 | 0.00 | 0.00 | 40 | 1017.5 |
| 20260506120506 | 23 | 262 | 16.1 | 25.7 | 0.00 | 0.00 | 0.00 | 39 | 1017.6 |
| 20260506120003 | 23 | 267 | 17.7 | 27.4 | 0.00 | 0.00 | 0.00 | 40 | 1017.6 |
| 20260506115504 | 23 | 249 | 19.3 | 27.4 | 0.00 | 0.00 | 0.00 | 40 | 1017.6 |
| 20260506115002 | 23 | 245 | 12.9 | 25.7 | 0.00 | 0.00 | 0.00 | 42 | 1017.6 |
| 20260506114501 | 23 | 238 | 19.3 | 25.7 | 0.00 | 0.00 | 0.00 | 41 | 1017.6 |
| 20260506114100 | 23 | 259 | 16.1 | 24.1 | 0.00 | 0.00 | 0.00 | 42 | 1017.6 |
| 20260506114001 | 23 | 295 | 16.1 | 24.1 | 0.00 | 0.00 | 0.00 | 41 | 1017.6 |
| 20260506113601 | 23 | 225 | 14.5 | 24.1 | 0.00 | 0.00 | 0.00 | 41 | 1017.7 |
| 20260506113100 | 23 | 215 | 12.9 | 25.7 | 0.00 | 0.00 | 0.00 | 42 | 1017.6 |
| 20260506112602 | 24 | 229 | 12.9 | 22.5 | 0.00 | 0.00 | 0.00 | 41 | 1017.6 |
| 20260506112102 | 23 | 244 | 16.1 | 20.9 | 0.00 | 0.00 | 0.00 | 40 | 1017.6 |
| 20260506111559 | 23 | 206 | 9.7 | 20.9 | 0.00 | 0.00 | 0.00 | 41 | 1017.6 |
| 20260506111059 | 24 | 240 | 11.3 | 24.1 | 0.00 | 0.00 | 0.00 | 41 | 1017.6 |
| 20260506110559 | 24 | 236 | 17.7 | 24.1 | 0.00 | 0.00 | 0.00 | 41 | 1017.7 |
| 20260506110059 | 24 | 226 | 12.9 | 22.5 | 0.00 | 0.00 | 0.00 | 41 | 1017.5 |
| 20260506105558 | 24 | 247 | 16.1 | 22.5 | 0.00 | 0.00 | 0.00 | 41 | 1017.6 |
| 20260506105058 | 25 | 219 | 9.7 | 22.5 | 0.00 | 0.00 | 0.00 | 39 | 1017.5 |
| 20260506104628 | 24 | 250 | 8.0 | 22.5 | 0.00 | 0.00 | 0.00 | 40 | 1017.5 |
| 20260506104056 | 24 | 259 | 4.8 | 22.5 | 0.00 | 0.00 | 0.00 | 41 | 1017.6 |
| 20260506103555 | 24 | 246 | 12.9 | 22.5 | 0.00 | 0.00 | 0.00 | 41 | 1017.5 |
| 20260506103055 | 24 | 226 | 9.7 | 19.3 | 0.00 | 0.00 | 0.00 | 41 | 1017.6 |
| 20260506102554 | 24 | 195 | 11.3 | 19.3 | 0.00 | 0.00 | 0.00 | 41 | 1017.6 |
| 20260506102054 | 24 | 172 | 12.9 | 17.7 | 0.00 | 0.00 | 0.00 | 43 | 1017.6 |
| 20260506101553 | 24 | 230 | 14.5 | 19.3 | 0.00 | 0.00 | 0.00 | 44 | 1017.6 |
| 20260506101052 | 23 | 204 | 8.0 | 16.1 | 0.00 | 0.00 | 0.00 | 44 | 1017.6 |
| 20260506100552 | 23 | 198 | 9.7 | 19.3 | 0.00 | 0.00 | 0.00 | 43 | 1017.7 |
| 20260506100051 | 23 | 265 | 11.3 | 17.7 | 0.00 | 0.00 | 0.00 | 43 | 1017.7 |
| 20260506095554 | 24 | 202 | 4.8 | 17.7 | 0.00 | 0.00 | 0.00 | 43 | 1017.7 |
| 20260506095050 | 23 | 260 | 8.0 | 17.7 | 0.00 | 0.00 | 0.00 | 43 | 1017.8 |
| 20260506094548 | 23 | 240 | 9.7 | 14.5 | 0.00 | 0.00 | 0.00 | 44 | 1017.8 |
| 20260506094147 | 23 | 238 | 9.7 | 14.5 | 0.00 | 0.00 | 0.00 | 43 | 1017.8 |
| 20260506093547 | 23 | 254 | 9.7 | 16.1 | 0.00 | 0.00 | 0.00 | 44 | 1017.9 |
| 20260506093046 | 23 | 183 | 11.3 | 16.1 | 0.00 | 0.00 | 0.00 | 43 | 1018.0 |
| 20260506092545 | 23 | 202 | 9.7 | 16.1 | 0.00 | 0.00 | 0.00 | 43 | 1017.9 |
| 20260506092045 | 23 | 205 | 6.4 | 16.1 | 0.00 | 0.00 | 0.00 | 41 | 1018.0 |
| 20260506091544 | 23 | 230 | 11.3 | 16.1 | 0.00 | 0.00 | 0.00 | 41 | 1018.1 |
| 20260506091044 | 23 | 249 | 4.8 | 12.9 | 0.00 | 0.00 | 0.00 | 42 | 1018.0 |
| 20260506090540 | 23 | 191 | 4.8 | 12.9 | 0.00 | 0.00 | 0.00 | 41 | 1018.1 |
| 20260506090045 | 23 | 245 | 6.4 | 12.9 | 0.00 | 0.00 | 0.00 | 42 | 1018.0 |